,,Stat1,,Stat2,,Stat3,,Stat4,,Wind1,,Wind1,
time,status,PR1M_SUM,status,RH1M_AVG,status,SR1M_AVG,status,TA1M_AVG,status,W1dAve1m,status,W1sAve1m,
1999-09-28, 00:01:00,VALID,0.2,VALID,100,VALID,0.0339617,VALID,18.6492,VALID,264,VALID,1.48552,
1999-09-28, 00:02:00,VALID,0,VALID,100,VALID,0.0169808,VALID,18.6365,VALID,245,VALID,1.22897,
1999-09-28, 00:03:00,VALID,0,VALID,100,VALID,0,VALID,18.6434,VALID,248,VALID,0.750401,
1999-09-28, 00:04:00,VALID,0,VALID,100,VALID,0.0169808,VALID,18.6462,VALID,245,VALID,0.691934,
1999-09-28, 00:05:00,VALID,0,VALID,100,VALID,0.0169808,VALID,18.6589,VALID,261,VALID,1.57566,
1999-09-28, 00:06:00,VALID,0,VALID,100,VALID,0.0509425,VALID,18.6589,VALID,242,VALID,1.34696,
1999-09-28, 00:07:00,VALID,0,VALID,100,VALID,0.0679233,VALID,18.6492,VALID,243,VALID,1.55729,
1999-09-28, 00:08:00,VALID,0,VALID,100,VALID,0.0169808,VALID,18.6492,VALID,242,VALID,0.968359,
1999-09-28, 00:09:00,VALID,0,VALID,100,VALID,0.0169808,VALID,18.6487,VALID,249,VALID,0.922086,
1999-09-28, 00:10:00,VALID,0,VALID,100,VALID,0.0169808,VALID,18.6624,VALID,253,VALID,1.19236,
1999-09-28, 00:11:00,VALID,0,VALID,100,VALID,0.0509425,VALID,18.6557,VALID,259,VALID,1.19911,
1999-09-28, 00:12:00,VALID,0,VALID,100,VALID,0.0169808,VALID,18.6457,VALID,261,VALID,1.33996,
1999-09-28, 00:13:00,VALID,0,VALID,100,VALID,0.0339617,VALID,18.6524,VALID,251,VALID,0.894631,
1999-09-28, 00:14:00,VALID,0,VALID,100,VALID,0.0679233,VALID,18.6651,VALID,271,VALID,1.15801,
1999-09-28, 00:15:00,VALID,0,VALID,100,VALID,0.0679233,VALID,18.6455,VALID,249,VALID,0.777961,
1999-09-28, 00:16:00,VALID,0,VALID,100,VALID,0.0169808,VALID,18.6624,VALID,241,VALID,0.6352,
1999-09-28, 00:17:00,VALID,0,VALID,100,VALID,0.0679233,VALID,18.6654,VALID,229,VALID,0.523438,
1999-09-28, 00:18:00,VALID,0,VALID,100,VALID,0.0679233,VALID,18.6591,VALID,239,VALID,1.03285,
1999-09-28, 00:19:00,VALID,0,VALID,100,VALID,0.0339617,VALID,18.6457,VALID,209,VALID,1.34102,
1999-09-28, 00:20:00,VALID,0,VALID,100,VALID,0.0509425,VALID,18.6268,VALID,222,VALID,1.18442,
1999-09-28, 00:21:00,VALID,0,VALID,100,VALID,0.0339617,VALID,18.6201,VALID,194,VALID,1.01628,
1999-09-28, 00:22:00,VALID,0,VALID,100,VALID,0.0509425,VALID,18.6136,VALID,214,VALID,1.14353,
1999-09-28, 00:23:00,VALID,0,VALID,100,VALID,0.0169808,VALID,18.5943,VALID,201,VALID,1.07592,
1999-09-28, 00:24:00,VALID,0,VALID,100,VALID,0.0679233,VALID,18.5913,VALID,203,VALID,0.645898,
1999-09-28, 00:25:00,VALID,0,VALID,100,VALID,0,VALID,18.5945,VALID,188,VALID,0.803248,
1999-09-28, 00:26:00,VALID,0,VALID,100,VALID,0,VALID,18.5883,VALID,190,VALID,1.06554,
1999-09-28, 00:27:00,VALID,0,VALID,100,VALID,0.0169808,VALID,18.5816,VALID,173,VALID,0.413393,
1999-09-28, 00:28:00,VALID,0,VALID,100,VALID,0.0169808,VALID,18.6141,VALID,153,VALID,0.569511,
1999-09-28, 00:29:00,VALID,0,VALID,100,VALID,-0.0339617,VALID,18.6312,VALID,164,VALID,0.672266,
1999-09-28, 00:30:00,VALID,0,VALID,100,VALID,-0.0339617,VALID,18.6051,VALID,174,VALID,0.627878,
1999-09-28, 00:31:00,VALID,0,VALID,100,VALID,-0.0679233,VALID,18.6146,VALID,177,VALID,0.474826,
1999-09-28, 00:32:00,VALID,0,VALID,100,VALID,-0.0679233,VALID,18.6252,VALID,213,VALID,0.637277,
1999-09-28, 00:33:00,VALID,0,VALID,100,VALID,-0.0509425,VALID,18.6188,VALID,206,VALID,0.822917,
1999-09-28, 00:34:00,VALID,0,VALID,100,VALID,-0.0849042,VALID,18.5894,VALID,226,VALID,0.358984,
1999-09-28, 00:35:00,VALID,0,VALID,100,VALID,-0.0849042,VALID,18.5959,VALID,212,VALID,0.539885,
1999-09-28, 00:36:00,VALID,0,VALID,100,VALID,-0.0509425,VALID,18.5987,VALID,225,VALID,0.589844,
1999-09-28, 00:37:00,VALID,0,VALID,100,VALID,-0.0849042,VALID,18.6054,VALID,226,VALID,0.71183,
1999-09-28, 00:38:00,VALID,0,VALID,100,VALID,-0.0339617,VALID,18.6084,VALID,238,VALID,0.564303,
1999-09-28, 00:39:01,VALID,0,VALID,100,VALID,-0.0509425,VALID,18.6021,VALID,250,VALID,0.613672,
1999-09-28, 00:40:00,VALID,0,VALID,100,VALID,-0.0339617,VALID,18.5924,VALID,236,VALID,0.445313,
1999-09-28, 00:41:00,VALID,0,VALID,100,VALID,-0.0339617,VALID,18.5894,VALID,224,VALID,0.272352,
1999-09-28, 00:42:00,VALID,0,VALID,100,VALID,-0.0509425,VALID,18.5989,VALID,197,VALID,0.396652,
1999-09-28, 00:43:00,VALID,0,VALID,100,VALID,-0.0339617,VALID,18.616,VALID,239,VALID,0.748998,
1999-09-28, 00:44:00,VALID,0,VALID,100,VALID,-0.101885,VALID,18.6056,VALID,213,VALID,0.725391,
1999-09-28, 00:45:00,VALID,0,VALID,100,VALID,-0.101885,VALID,18.6116,VALID,210,VALID,0.465461,
1999-09-28, 00:46:00,VALID,0,VALID,100,VALID,-0.0849042,VALID,18.6091,VALID,210,VALID,0.385851,
1999-09-28, 00:47:00,VALID,0,VALID,100,VALID,-0.0509425,VALID,18.6183,VALID,161,VALID,0.578348,
1999-09-28, 00:48:00,VALID,0,VALID,100,VALID,-0.0849042,VALID,18.6538,VALID,126,VALID,0.490184,
1999-09-28, 00:49:01,VALID,0,VALID,100,VALID,-0.0679233,VALID,18.6404,VALID,187,VALID,0.620508,
1999-09-28, 00:50:00,VALID,0,VALID,100,VALID,-0.0509425,VALID,18.6275,VALID,216,VALID,0.643298,
1999-09-28, 00:51:00,VALID,0,VALID,100,VALID,-0.0849042,VALID,18.6185,VALID,177,VALID,0.930339,
1999-09-28, 00:52:00,VALID,0,VALID,100,VALID,-0.0679233,VALID,18.5897,VALID,192,VALID,0.49308,
1999-09-28, 00:53:00,VALID,0,VALID,100,VALID,-0.0849042,VALID,18.5927,VALID,202,VALID,0.292268,
1999-09-28, 00:54:00,VALID,0,VALID,100,VALID,-0.101885,VALID,18.5931,VALID,203,VALID,0.600977,
1999-09-28, 00:55:00,VALID,0,VALID,100,VALID,-0.0679233,VALID,18.583,VALID,219,VALID,0.682977,
1999-09-28, 00:56:00,VALID,0,VALID,100,VALID,-0.0509425,VALID,18.5929,VALID,200,VALID,0.683594,
1999-09-28, 00:57:00,VALID,0,VALID,100,VALID,-0.0849042,VALID,18.5994,VALID,203,VALID,0.505357,
1999-09-28, 00:58:00,VALID,0,VALID,100,VALID,-0.101885,VALID,18.5929,VALID,230,VALID,0.77484,
1999-09-28, 00:59:00,VALID,0,VALID,100,VALID,0.0169808,VALID,18.585,VALID,217,VALID,1.09434,
1999-09-28, 01:00:00,VALID,0,VALID,100,VALID,0.0679233,VALID,18.5654,VALID,240,VALID,0.821135,
1999-09-28, 01:01:00,VALID,0,VALID,100,VALID,0.0509425,VALID,18.5654,VALID,208,VALID,1.07509,
1999-09-28, 01:02:00,VALID,0,VALID,100,VALID,0.0509425,VALID,18.5753,VALID,233,VALID,0.941518,
1999-09-28, 01:03:00,VALID,0,VALID,100,VALID,0.0339617,VALID,18.5684,VALID,247,VALID,0.800681,
1999-09-28, 01:04:00,VALID,0,VALID,100,VALID,0.0509425,VALID,18.5749,VALID,214,VALID,0.792188,
1999-09-28, 01:05:00,VALID,0,VALID,100,VALID,0.0339617,VALID,18.5876,VALID,241,VALID,0.563734,
1999-09-28, 01:06:00,VALID,0,VALID,100,VALID,0.0169808,VALID,18.5943,VALID,228,VALID,0.482422,
1999-09-28, 01:07:00,VALID,0,VALID,100,VALID,0.0339617,VALID,18.5975,VALID,252,VALID,0.572768,
1999-09-28, 01:08:00,VALID,0.2,VALID,100,VALID,0.0169808,VALID,18.598,VALID,226,VALID,0.504207,
1999-09-28, 01:09:00,VALID,0,VALID,100,VALID,0.0849042,VALID,18.591,VALID,276,VALID,0.827344,
1999-09-28, 01:10:00,VALID,0.2,VALID,100,VALID,0.0169808,VALID,18.5915,VALID,238,VALID,0.565173,
1999-09-28, 01:11:00,VALID,0,VALID,100,VALID,0.0849042,VALID,18.5675,VALID,223,VALID,0.777344,
1999-09-28, 01:12:01,VALID,0,VALID,100,VALID,0.0339617,VALID,18.5714,VALID,238,VALID,1.07232,
1999-09-28, 01:13:00,VALID,0,VALID,100,VALID,0.0679233,VALID,18.5649,VALID,228,VALID,1.05068,
1999-09-28, 01:14:00,VALID,0,VALID,100,VALID,0,VALID,18.5631,VALID,238,VALID,1.29043,
1999-09-28, 01:15:00,VALID,0,VALID,100,VALID,-0.0509425,VALID,18.537,VALID,235,VALID,1.45847,
1999-09-28, 01:16:00,VALID,0,VALID,100,VALID,-0.0849042,VALID,18.5308,VALID,251,VALID,1.24609,
1999-09-28, 01:17:00,VALID,0,VALID,100,VALID,-0.0509425,VALID,18.5176,VALID,238,VALID,1.01696,
1999-09-28, 01:18:00,VALID,0,VALID,100,VALID,-0.0169808,VALID,18.5243,VALID,236,VALID,0.607772,
1999-09-28, 01:19:00,VALID,0,VALID,100,VALID,0,VALID,18.534,VALID,228,VALID,0.533398,
1999-09-28, 01:20:00,VALID,0,VALID,100,VALID,-0.0339617,VALID,18.5472,VALID,240,VALID,1.14597,
1999-09-28, 01:21:00,VALID,0,VALID,100,VALID,-0.0509425,VALID,18.534,VALID,238,VALID,0.797526,
1999-09-28, 01:22:00,VALID,0,VALID,100,VALID,0,VALID,18.5273,VALID,229,VALID,0.821429,
1999-09-28, 01:23:00,VALID,0,VALID,100,VALID,-0.0169808,VALID,18.5148,VALID,235,VALID,1.15565,
1999-09-28, 01:24:00,VALID,0,VALID,100,VALID,0,VALID,18.5153,VALID,238,VALID,0.726172,
1999-09-28, 01:25:00,VALID,0,VALID,100,VALID,-0.0679233,VALID,18.5116,VALID,221,VALID,1.40461,
1999-09-28, 01:26:00,VALID,0,VALID,100,VALID,-0.0679233,VALID,18.5155,VALID,227,VALID,1.31641,
1999-09-28, 01:27:00,VALID,0,VALID,100,VALID,-0.0339617,VALID,18.5255,VALID,228,VALID,1.29308,
1999-09-28, 01:28:00,VALID,0,VALID,100,VALID,-0.0849042,VALID,18.5049,VALID,221,VALID,1.4365,
1999-09-28, 01:29:00,VALID,0,VALID,100,VALID,0,VALID,18.4848,VALID,198,VALID,1.17832,
1999-09-28, 01:30:00,VALID,0,VALID,100,VALID,0,VALID,18.4913,VALID,195,VALID,0.95662,
1999-09-28, 01:31:00,VALID,0,VALID,100,VALID,-0.0169808,VALID,18.4945,VALID,209,VALID,0.620443,
1999-09-28, 01:32:00,VALID,0,VALID,100,VALID,0,VALID,18.5141,VALID,212,VALID,0.566741,
1999-09-28, 01:33:00,VALID,0,VALID,100,VALID,0,VALID,18.5049,VALID,192,VALID,0.605769,
1999-09-28, 01:34:01,VALID,0,VALID,100,VALID,-0.0169808,VALID,18.5178,VALID,203,VALID,0.649805,
1999-09-28, 01:35:00,VALID,0,VALID,100,VALID,-0.0169808,VALID,18.5047,VALID,194,VALID,0.686678,
1999-09-28, 01:36:00,VALID,0,VALID,100,VALID,-0.0849042,VALID,18.5047,VALID,209,VALID,0.935113,
1999-09-28, 01:37:00,VALID,0.2,VALID,100,VALID,0,VALID,18.4816,VALID,218,VALID,1.1971,
1999-09-28, 01:38:00,VALID,0,VALID,100,VALID,0,VALID,18.5081,VALID,191,VALID,0.928686,
1999-09-28, 01:39:00,VALID,0,VALID,100,VALID,0,VALID,18.4982,VALID,188,VALID,0.808789,
1999-09-28, 01:40:00,VALID,0,VALID,100,VALID,0,VALID,18.5081,VALID,184,VALID,0.726151,
1999-09-28, 01:41:00,VALID,0,VALID,100,VALID,0,VALID,18.4883,VALID,187,VALID,1.32075,
1999-09-28, 01:42:00,VALID,0,VALID,100,VALID,0,VALID,18.4855,VALID,174,VALID,0.842188,
1999-09-28, 01:43:00,VALID,0,VALID,100,VALID,0,VALID,18.4786,VALID,179,VALID,0.727965,
1999-09-28, 01:44:01,VALID,0,VALID,100,VALID,0,VALID,18.4887,VALID,196,VALID,0.800195,
1999-09-28, 01:45:00,VALID,0,VALID,100,VALID,-0.0339617,VALID,18.479,VALID,198,VALID,0.579359,
1999-09-28, 01:46:00,VALID,0,VALID,100,VALID,0,VALID,18.4624,VALID,176,VALID,0.701823,
1999-09-28, 01:47:00,VALID,0,VALID,100,VALID,0.0169808,VALID,18.4587,VALID,178,VALID,0.682143,
1999-09-28, 01:48:00,VALID,0,VALID,100,VALID,0,VALID,18.4654,VALID,175,VALID,0.341747,
1999-09-28, 01:49:00,VALID,0,VALID,100,VALID,0,VALID,18.4984,VALID,165,VALID,0.382031,
1999-09-28, 01:50:00,VALID,0,VALID,100,VALID,0,VALID,18.4883,VALID,171,VALID,0.600946,
1999-09-28, 01:51:00,VALID,0,VALID,100,VALID,0,VALID,18.4885,VALID,149,VALID,0.905382,
1999-09-28, 01:52:00,VALID,0,VALID,100,VALID,0.0169808,VALID,18.495,VALID,147,VALID,1.15714,
1999-09-28, 01:53:00,VALID,0,VALID,100,VALID,0.0169808,VALID,18.485,VALID,177,VALID,0.934295,
1999-09-28, 01:54:00,VALID,0,VALID,100,VALID,0.0849042,VALID,18.4966,VALID,201,VALID,0.461328,
1999-09-28, 01:55:00,VALID,0,VALID,100,VALID,0.101885,VALID,18.5095,VALID,226,VALID,0.461143,
1999-09-28, 01:56:01,VALID,0,VALID,100,VALID,0.0849042,VALID,18.5264,VALID,207,VALID,0.775825,
1999-09-28, 01:57:00,VALID,0,VALID,100,VALID,0.101885,VALID,18.4998,VALID,221,VALID,0.753348,
1999-09-28, 01:58:00,VALID,0,VALID,100,VALID,0.0849042,VALID,18.5227,VALID,219,VALID,0.629207,
1999-09-28, 01:59:00,VALID,0,VALID,100,VALID,0,VALID,18.5206,VALID,208,VALID,1.0791,
1999-09-28, 02:00:00,VALID,0,VALID,100,VALID,0,VALID,18.5141,VALID,197,VALID,0.653783,
1999-09-28, 02:01:00,VALID,0,VALID,100,VALID,0,VALID,18.4945,VALID,172,VALID,0.693793,
1999-09-28, 02:02:00,VALID,0,VALID,100,VALID,-0.0169808,VALID,18.5051,VALID,171,VALID,0.48125,
1999-09-28, 02:03:00,VALID,0,VALID,100,VALID,-0.0169808,VALID,18.498,VALID,155,VALID,0.854167,
1999-09-28, 02:04:00,VALID,0,VALID,100,VALID,0,VALID,18.5077,VALID,135,VALID,0.800195,
1999-09-28, 02:05:00,VALID,0,VALID,100,VALID,0,VALID,18.5178,VALID,150,VALID,0.666118,
1999-09-28, 02:06:00,VALID,0,VALID,100,VALID,0,VALID,18.5014,VALID,141,VALID,0.551215,
1999-09-28, 02:07:01,VALID,0,VALID,100,VALID,0,VALID,18.485,VALID,153,VALID,0.532812,
1999-09-28, 02:08:00,VALID,0,VALID,100,VALID,-0.0169808,VALID,18.4853,VALID,180,VALID,0.118189,
1999-09-28, 02:09:00,VALID,0,VALID,100,VALID,0,VALID,18.489,VALID,201,VALID,0.35293,
1999-09-28, 02:10:00,VALID,0,VALID,100,VALID,-0.0169808,VALID,18.4696,VALID,210,VALID,0.298725,
1999-09-28, 02:11:00,VALID,0,VALID,100,VALID,-0.0509425,VALID,18.4664,VALID,202,VALID,0.150391,
1999-09-28, 02:12:00,VALID,0,VALID,100,VALID,0,VALID,18.4756,VALID,201,VALID,0,
1999-09-28, 02:13:00,VALID,0,VALID,100,VALID,-0.0169808,VALID,18.5014,VALID,170,VALID,0,
1999-09-28, 02:14:00,VALID,0,VALID,100,VALID,0.0509425,VALID,18.5201,VALID,121,VALID,0,
1999-09-28, 02:15:00,VALID,0,VALID,100,VALID,0.0339617,VALID,18.5234,VALID,129,VALID,0,
1999-09-28, 02:16:00,VALID,0,VALID,100,VALID,0,VALID,18.4977,VALID,128,VALID,0,
1999-09-28, 02:17:00,VALID,0,VALID,100,VALID,0.0169808,VALID,18.504,VALID,126,VALID,0,
1999-09-28, 02:18:01,VALID,0,VALID,100,VALID,0.0509425,VALID,18.4913,VALID,126,VALID,0,
1999-09-28, 02:19:00,VALID,0,VALID,100,VALID,0.0339617,VALID,18.4887,VALID,139,VALID,0,
1999-09-28, 02:20:00,VALID,0,VALID,100,VALID,0.0169808,VALID,18.4975,VALID,160,VALID,0,
1999-09-28, 02:21:00,VALID,0,VALID,100,VALID,0.0679233,VALID,18.4947,VALID,152,VALID,0,
1999-09-28, 02:22:00,VALID,0,VALID,100,VALID,0.0339617,VALID,18.4982,VALID,151,VALID,0,
1999-09-28, 02:23:00,VALID,0,VALID,100,VALID,0.0339617,VALID,18.4908,VALID,121,VALID,0.0963542,
1999-09-28, 02:24:00,VALID,0,VALID,100,VALID,0,VALID,18.4816,VALID,112,VALID,0.905078,
1999-09-28, 02:25:00,VALID,0,VALID,100,VALID,0.0169808,VALID,18.4622,VALID,118,VALID,0.672697,
1999-09-28, 02:26:00,VALID,0,VALID,100,VALID,0.0169808,VALID,18.4363,VALID,141,VALID,0.386285,
1999-09-28, 02:27:00,VALID,0,VALID,100,VALID,0.0509425,VALID,18.4266,VALID,129,VALID,0.595536,
1999-09-28, 02:28:00,VALID,0,VALID,100,VALID,0.0509425,VALID,18.4294,VALID,111,VALID,0.360176,
1999-09-28, 02:29:01,VALID,0,VALID,100,VALID,0.0169808,VALID,18.4426,VALID,138,VALID,0.0859375,
1999-09-28, 02:30:00,VALID,0,VALID,100,VALID,0.0169808,VALID,18.4497,VALID,151,VALID,0,
1999-09-28, 02:31:00,VALID,0,VALID,100,VALID,0.0169808,VALID,18.459,VALID,151,VALID,0,
1999-09-28, 02:32:00,VALID,0,VALID,100,VALID,0.0339617,VALID,18.4687,VALID,175,VALID,0,
1999-09-28, 02:33:00,VALID,0,VALID,100,VALID,0.0509425,VALID,18.4518,VALID,210,VALID,0.441907,
1999-09-28, 02:34:00,VALID,0,VALID,100,VALID,0.0339617,VALID,18.452,VALID,221,VALID,0.668359,
1999-09-28, 02:35:00,VALID,0,VALID,100,VALID,0.0169808,VALID,18.4294,VALID,217,VALID,0.762336,
1999-09-28, 02:36:00,VALID,0,VALID,100,VALID,0.0339617,VALID,18.4172,VALID,224,VALID,0.705512,
1999-09-28, 02:37:00,VALID,0,VALID,100,VALID,0.0509425,VALID,18.4003,VALID,222,VALID,0.529688,
1999-09-28, 02:38:00,VALID,0,VALID,100,VALID,0.0339617,VALID,18.4102,VALID,223,VALID,0.824519,
1999-09-28, 02:39:01,VALID,0,VALID,100,VALID,0.0339617,VALID,18.4005,VALID,205,VALID,0.820313,
1999-09-28, 02:40:01,VALID,0,VALID,100,VALID,0.0169808,VALID,18.4072,VALID,196,VALID,0.776316,
1999-09-28, 02:41:00,VALID,0,VALID,100,VALID,0.0169808,VALID,18.4135,VALID,184,VALID,0.748915,
1999-09-28, 02:42:00,VALID,0,VALID,100,VALID,0.0339617,VALID,18.4232,VALID,189,VALID,1.06295,
1999-09-28, 02:43:00,VALID,0,VALID,100,VALID,0.0509425,VALID,18.4331,VALID,207,VALID,0.808694,
1999-09-28, 02:44:00,VALID,0,VALID,100,VALID,-0.0339617,VALID,18.4405,VALID,197,VALID,1.09043,
1999-09-28, 02:45:00,VALID,0,VALID,100,VALID,-0.0679233,VALID,18.4472,VALID,198,VALID,0.908306,
1999-09-28, 02:46:00,VALID,0,VALID,100,VALID,-0.0679233,VALID,18.4608,VALID,190,VALID,0.874132,
1999-09-28, 02:47:00,VALID,0,VALID,100,VALID,-0.0849042,VALID,18.4539,VALID,213,VALID,0.705134,
1999-09-28, 02:48:00,VALID,0,VALID,100,VALID,-0.0509425,VALID,18.4763,VALID,181,VALID,0.586338,
1999-09-28, 02:49:01,VALID,0,VALID,100,VALID,-0.0679233,VALID,18.473,VALID,184,VALID,0.844531,
1999-09-28, 02:50:00,VALID,0,VALID,100,VALID,-0.0679233,VALID,18.47,VALID,204,VALID,1.42701,
1999-09-28, 02:51:00,VALID,0,VALID,100,VALID,-0.0339617,VALID,18.4599,VALID,203,VALID,1.12695,
1999-09-28, 02:52:00,VALID,0,VALID,100,VALID,-0.0679233,VALID,18.473,VALID,209,VALID,1.30513,
1999-09-28, 02:53:00,VALID,0.2,VALID,100,VALID,-0.0679233,VALID,18.4763,VALID,202,VALID,0.983974,
1999-09-28, 02:54:00,VALID,0,VALID,100,VALID,-0.0339617,VALID,18.4698,VALID,180,VALID,0.844141,
1999-09-28, 02:55:00,VALID,0.2,VALID,100,VALID,-0.0509425,VALID,18.4733,VALID,203,VALID,0.732936,
1999-09-28, 02:56:00,VALID,0,VALID,100,VALID,-0.0679233,VALID,18.4634,VALID,213,VALID,1.1122,
1999-09-28, 02:57:00,VALID,0,VALID,100,VALID,-0.0339617,VALID,18.4795,VALID,208,VALID,0.70558,
1999-09-28, 02:58:00,VALID,0.2,VALID,100,VALID,-0.0509425,VALID,18.4631,VALID,194,VALID,1.02684,
1999-09-28, 02:59:00,VALID,0,VALID,100,VALID,0.0339617,VALID,18.4622,VALID,203,VALID,1.26211,
1999-09-28, 03:00:00,VALID,0.2,VALID,100,VALID,0.0339617,VALID,18.452,VALID,190,VALID,1.16859,
1999-09-28, 03:01:00,VALID,0,VALID,100,VALID,0.0339617,VALID,18.4453,VALID,186,VALID,1.01063,
1999-09-28, 03:02:00,VALID,0.2,VALID,100,VALID,0.0849042,VALID,18.4458,VALID,188,VALID,1.16228,
1999-09-28, 03:03:00,VALID,0.2,VALID,100,VALID,0.0679233,VALID,18.4456,VALID,197,VALID,1.47236,
1999-09-28, 03:04:00,VALID,0.4,VALID,100,VALID,0.0509425,VALID,18.4294,VALID,204,VALID,1.33242,
1999-09-28, 03:05:00,VALID,0.2,VALID,100,VALID,0.0509425,VALID,18.4426,VALID,213,VALID,0.847245,
1999-09-28, 03:06:00,VALID,0.4,VALID,100,VALID,0.0339617,VALID,18.4331,VALID,216,VALID,1.20226,
1999-09-28, 03:07:00,VALID,0.2,VALID,100,VALID,0.0509425,VALID,18.4266,VALID,220,VALID,1.3558,
1999-09-28, 03:08:00,VALID,0.2,VALID,100,VALID,0.0339617,VALID,18.4035,VALID,201,VALID,1.30489,
1999-09-28, 03:09:00,VALID,0.2,VALID,100,VALID,0.0339617,VALID,18.407,VALID,213,VALID,1.02266,
1999-09-28, 03:10:00,VALID,0,VALID,100,VALID,0.0679233,VALID,18.4102,VALID,209,VALID,0.9044,
1999-09-28, 03:11:00,VALID,0.2,VALID,100,VALID,0.0339617,VALID,18.4135,VALID,201,VALID,0.771267,
1999-09-28, 03:12:00,VALID,0,VALID,100,VALID,0.0169808,VALID,18.4195,VALID,215,VALID,0.797545,
1999-09-28, 03:13:00,VALID,0.2,VALID,100,VALID,0.0169808,VALID,18.4197,VALID,203,VALID,0.174079,
1999-09-28, 03:14:00,VALID,0.2,VALID,100,VALID,0.0169808,VALID,18.4306,VALID,206,VALID,0.427344,
1999-09-28, 03:15:00,VALID,0.2,VALID,100,VALID,-0.0169808,VALID,18.4405,VALID,193,VALID,0.599712,
1999-09-28, 03:16:00,VALID,0.2,VALID,100,VALID,-0.0339617,VALID,18.438,VALID,193,VALID,0.767144,
1999-09-28, 03:17:00,VALID,0.2,VALID,100,VALID,-0.0169808,VALID,18.4539,VALID,189,VALID,0.372768,
1999-09-28, 03:18:00,VALID,0,VALID,100,VALID,0,VALID,18.447,VALID,171,VALID,0.614583,
1999-09-28, 03:19:00,VALID,0.2,VALID,100,VALID,-0.0339617,VALID,18.4504,VALID,173,VALID,0.493164,
1999-09-28, 03:20:00,VALID,0,VALID,100,VALID,-0.0169808,VALID,18.4504,VALID,208,VALID,0.346423,
1999-09-28, 03:21:00,VALID,0.2,VALID,100,VALID,-0.0339617,VALID,18.4597,VALID,225,VALID,0.844401,
1999-09-28, 03:22:00,VALID,0,VALID,100,VALID,0,VALID,18.4696,VALID,215,VALID,0.547768,
1999-09-28, 03:23:00,VALID,0.2,VALID,100,VALID,0,VALID,18.4927,VALID,235,VALID,0.492788,
1999-09-28, 03:24:00,VALID,0,VALID,100,VALID,-0.0169808,VALID,18.479,VALID,227,VALID,0.731445,
1999-09-28, 03:25:00,VALID,0,VALID,100,VALID,-0.0169808,VALID,18.4989,VALID,215,VALID,0.997122,
1999-09-28, 03:26:00,VALID,0.2,VALID,100,VALID,-0.0169808,VALID,18.4922,VALID,215,VALID,1.15668,
1999-09-28, 03:27:00,VALID,0,VALID,100,VALID,-0.0169808,VALID,18.5088,VALID,202,VALID,0.839063,
1999-09-28, 03:28:00,VALID,0.2,VALID,100,VALID,-0.0339617,VALID,18.5153,VALID,209,VALID,0.897035,
1999-09-28, 03:29:00,VALID,0.2,VALID,100,VALID,-0.0169808,VALID,18.5183,VALID,223,VALID,0.47168,
1999-09-28, 03:30:00,VALID,0.2,VALID,100,VALID,-0.0169808,VALID,18.5349,VALID,225,VALID,1.33409,
1999-09-28, 03:31:00,VALID,0,VALID,100,VALID,-0.0339617,VALID,18.528,VALID,222,VALID,1.06814,
1999-09-28, 03:32:00,VALID,0.2,VALID,100,VALID,-0.0509425,VALID,18.528,VALID,198,VALID,0.797098,
1999-09-28, 03:33:00,VALID,0,VALID,100,VALID,-0.0169808,VALID,18.5312,VALID,199,VALID,0.790264,
1999-09-28, 03:34:01,VALID,0,VALID,100,VALID,-0.0339617,VALID,18.5312,VALID,196,VALID,0.557813,
1999-09-28, 03:35:00,VALID,0.2,VALID,100,VALID,-0.0169808,VALID,18.5377,VALID,193,VALID,0.402961,
1999-09-28, 03:36:00,VALID,0,VALID,100,VALID,0,VALID,18.5409,VALID,213,VALID,0.325087,
1999-09-28, 03:37:00,VALID,0,VALID,100,VALID,-0.0169808,VALID,18.5472,VALID,203,VALID,0.328795,
1999-09-28, 03:38:00,VALID,0,VALID,100,VALID,0,VALID,18.5569,VALID,199,VALID,0.454728,
1999-09-28, 03:39:00,VALID,0,VALID,100,VALID,0,VALID,18.5601,VALID,210,VALID,0.330469,
1999-09-28, 03:40:00,VALID,0.2,VALID,100,VALID,0,VALID,18.5668,VALID,201,VALID,0.341488,
1999-09-28, 03:41:00,VALID,0,VALID,100,VALID,-0.0169808,VALID,18.5698,VALID,201,VALID,0.154731,
1999-09-28, 03:42:00,VALID,0,VALID,100,VALID,-0.0169808,VALID,18.583,VALID,181,VALID,0.260268,
1999-09-28, 03:43:00,VALID,0,VALID,100,VALID,0,VALID,18.5855,VALID,152,VALID,0.219151,
1999-09-28, 03:44:01,VALID,0,VALID,100,VALID,0,VALID,18.6114,VALID,127,VALID,0.385156,
1999-09-28, 03:45:00,VALID,0.2,VALID,100,VALID,-0.0509425,VALID,18.622,VALID,109,VALID,0.445313,
1999-09-28, 03:46:00,VALID,0,VALID,100,VALID,0,VALID,18.6121,VALID,102,VALID,0.276259,
1999-09-28, 03:47:00,VALID,0,VALID,100,VALID,0,VALID,18.625,VALID,102,VALID,0.0486607,
1999-09-28, 03:48:00,VALID,0,VALID,100,VALID,0,VALID,18.628,VALID,102,VALID,0,
1999-09-28, 03:49:00,VALID,0,VALID,100,VALID,0,VALID,18.6278,VALID,102,VALID,0.00078125,
1999-09-28, 03:50:00,VALID,0,VALID,100,VALID,0,VALID,18.6245,VALID,102,VALID,0,
1999-09-28, 03:51:00,VALID,0,VALID,100,VALID,0,VALID,18.6252,VALID,186,VALID,0.234809,
1999-09-28, 03:52:00,VALID,0,VALID,100,VALID,-0.0339617,VALID,18.6185,VALID,189,VALID,0.158929,
1999-09-28, 03:53:00,VALID,0,VALID,100,VALID,0,VALID,18.6151,VALID,179,VALID,0.0068109,
1999-09-28, 03:54:00,VALID,0,VALID,100,VALID,-0.0169808,VALID,18.6317,VALID,167,VALID,0.424219,
1999-09-28, 03:55:00,VALID,0,VALID,100,VALID,-0.0339617,VALID,18.6148,VALID,135,VALID,0.264803,
1999-09-28, 03:56:00,VALID,0,VALID,100,VALID,-0.0339617,VALID,18.6282,VALID,190,VALID,0.212457,
1999-09-28, 03:57:00,VALID,0,VALID,100,VALID,-0.0169808,VALID,18.6181,VALID,197,VALID,0.449554,
1999-09-28, 03:58:00,VALID,0,VALID,100,VALID,-0.0339617,VALID,18.6151,VALID,228,VALID,0.334135,
1999-09-28, 03:59:00,VALID,0,VALID,100,VALID,-0.0339617,VALID,18.5924,VALID,186,VALID,0.35,
1999-09-28, 04:00:00,VALID,0,VALID,100,VALID,0,VALID,18.5894,VALID,147,VALID,0.641447,
1999-09-28, 04:01:00,VALID,0,VALID,100,VALID,-0.0169808,VALID,18.5536,VALID,176,VALID,0.4477,
1999-09-28, 04:02:00,VALID,0,VALID,100,VALID,-0.0509425,VALID,18.5347,VALID,191,VALID,0.555804,
1999-09-28, 04:03:00,VALID,0,VALID,100,VALID,-0.0849042,VALID,18.525,VALID,202,VALID,0.565905,
1999-09-28, 04:04:00,VALID,0,VALID,100,VALID,-0.0509425,VALID,18.5118,VALID,189,VALID,0.603906,
1999-09-28, 04:05:00,VALID,0,VALID,100,VALID,-0.0849042,VALID,18.5222,VALID,182,VALID,0.113281,
1999-09-28, 04:06:00,VALID,0,VALID,100,VALID,-0.0509425,VALID,18.5151,VALID,189,VALID,0,
1999-09-28, 04:07:00,VALID,0,VALID,100,VALID,-0.0509425,VALID,18.5185,VALID,219,VALID,0.269196,
1999-09-28, 04:08:00,VALID,0,VALID,100,VALID,-0.0339617,VALID,18.5282,VALID,222,VALID,0.0578926,
1999-09-28, 04:09:00,VALID,0,VALID,100,VALID,-0.0339617,VALID,18.528,VALID,222,VALID,0,
1999-09-28, 04:10:00,VALID,0,VALID,100,VALID,-0.0339617,VALID,18.5446,VALID,210,VALID,0.0548931,
1999-09-28, 04:11:00,VALID,0,VALID,100,VALID,-0.0509425,VALID,18.5543,VALID,182,VALID,0,
1999-09-28, 04:12:00,VALID,0,VALID,100,VALID,-0.0509425,VALID,18.5613,VALID,184,VALID,0.171875,
1999-09-28, 04:13:00,VALID,0,VALID,100,VALID,-0.0169808,VALID,18.5541,VALID,177,VALID,0.140425,